Home   Weather   Columbus Junction   Past weeks
Flag for USA

Past Weather in Columbus Junction, Iowa, USA — Yesterday and Last 2 Weeks

Now
32 °F

Overcast.


Feels Like: 21 °F
Forecast: 34 / 22 °F
Wind: 16 mph from North

Location: Fair Field

Current Time: Feb 25, 2020 at 10:49:26 pm

Latest Report: Feb 25, 2020 at 9:55 pm


Visibility: 10 mi

Pressure: 30.17 "Hg

Humidity: 80%

Dew Point: 27 °F

Location of Columbus JunctionLocation

Past Weather in Columbus Junction — Graph

°F

Columbus Junction Temperature Yesterday

Maximum temperature yesterday: 50 °F (at 2:15 am)
Minimum temperature yesterday: 34 °F (at 2:35 am)
Average temperature yesterday: 37 °F

High & Low Weather Summary for the Past Weeks

 TemperatureHumidityPressure
High61 °F (Feb 23, 2:35 pm)100% (Feb 11, 4:35 am)30.80 "Hg (Feb 11, 4:35 am)
Low-11 °F (Feb 14, 3:55 am)25% (Feb 23, 2:15 pm)29.77 "Hg (Feb 17, 4:15 pm)
Average27 °F78%30.20 "Hg
* Reported Feb 10 9:15 pm — Feb 25 9:35 pm, Columbus Junction. Weather by CustomWeather, © 2020

Note: Actual official high and low records may vary slightly from our data, if they occured in-between our weather recording intervals... More about our weather records

Columbus Junction Weather History for the Previous 24 Hours

Scroll right to see more
 ConditionsComfort  
Time TempWeatherWind HumidityBarometerVisibility
9:35 pm
Tue, Feb 25
32 °FOvercast.14 mph80%30.17 "Hg10 mi
9:15 pm34 °FOvercast.15 mph75%30.17 "Hg10 mi
8:55 pm34 °FOvercast.14 mph75%30.17 "Hg10 mi
8:35 pm34 °FOvercast.14 mph75%30.16 "Hg10 mi
8:15 pm34 °FOvercast.15 mph75%30.16 "Hg10 mi
7:55 pm34 °FOvercast.15 mph81%30.16 "Hg10 mi
7:35 pm34 °FOvercast.15 mph81%30.16 "Hg10 mi
7:15 pm34 °FOvercast.13 mph81%30.15 "Hg10 mi
6:55 pm34 °FOvercast.12 mph81%30.15 "Hg10 mi
6:35 pm34 °FOvercast.13 mph75%30.14 "Hg10 mi
6:15 pm36 °FOvercast.14 mph70%30.13 "Hg10 mi
5:55 pm36 °FOvercast.14 mph70%30.12 "Hg10 mi
5:35 pm36 °FOvercast.14 mph70%30.11 "Hg10 mi
5:15 pm36 °FOvercast.17 mph70%30.10 "Hg10 mi
4:55 pm36 °FOvercast.20 mph70%30.09 "Hg10 mi
4:35 pm37 °FOvercast.16 mph65%30.08 "Hg10 mi
4:15 pm37 °FOvercast.20 mph70%30.08 "Hg10 mi
3:15 pm39 °FPartly sunny.21 mph65%30.06 "Hg10 mi
2:35 pm39 °FOvercast.21 mph65%30.04 "Hg10 mi
2:15 pm39 °FOvercast.18 mph70%30.04 "Hg10 mi
1:55 pm41 °FPartly sunny.16 mph66%30.03 "Hg10 mi
1:35 pm41 °FPassing clouds.18 mph61%30.02 "Hg10 mi
1:15 pm41 °FSunny.17 mph61%30.02 "Hg10 mi
12:55 pm41 °FSunny.16 mph61%30.03 "Hg10 mi
12:35 pm39 °FSunny.18 mph65%30.02 "Hg10 mi
12:15 pm39 °FSunny.20 mph65%30.02 "Hg10 mi
11:55 am39 °FSunny.21 mph65%30.02 "Hg10 mi
11:35 am39 °FSunny.17 mph65%30.02 "Hg10 mi
11:15 am37 °FSunny.18 mph70%30.02 "Hg10 mi
10:55 am37 °FSunny.18 mph70%30.02 "Hg10 mi
10:35 am37 °FSunny.21 mph70%30.02 "Hg10 mi
10:15 am37 °FSunny.21 mph70%30.01 "Hg10 mi
9:35 am36 °FSunny.20 mph75%30.00 "Hg10 mi
9:15 am34 °FSunny.16 mph81%30.00 "Hg10 mi
8:55 am34 °FSunny.18 mph81%30.00 "Hg10 mi
8:35 am34 °FSunny.20 mph81%29.99 "Hg10 mi
8:15 am34 °FSunny.16 mph81%29.99 "Hg10 mi
7:55 am32 °FSunny.15 mph87%29.98 "Hg10 mi
7:35 am32 °FSunny.15 mph87%29.97 "Hg10 mi
7:15 am32 °FScattered clouds.14 mph87%29.97 "Hg10 mi
6:55 am32 °FOvercast.12 mph87%29.96 "Hg10 mi
6:35 am32 °FOvercast.12 mph87%29.95 "Hg10 mi
6:15 am32 °FOvercast.12 mph87%29.94 "Hg10 mi
5:55 am32 °FOvercast.12 mph87%29.93 "Hg10 mi
5:35 am32 °FOvercast.12 mph87%29.93 "Hg10 mi
5:15 am32 °FOvercast.12 mph87%29.92 "Hg10 mi
4:55 am32 °FOvercast.12 mph87%29.92 "Hg10 mi
4:35 am32 °FOvercast.13 mph87%29.90 "Hg10 mi
4:15 am32 °FOvercast.13 mph87%29.90 "Hg10 mi
3:55 am32 °FOvercast.13 mph87%29.90 "Hg10 mi
3:35 am32 °FOvercast.12 mph87%29.89 "Hg10 mi
3:15 am32 °FMostly cloudy.12 mph87%29.89 "Hg10 mi
2:55 am32 °FMostly cloudy.9 mph87%29.89 "Hg10 mi
2:35 am32 °FMostly cloudy.9 mph87%29.89 "Hg10 mi
1:55 am32 °FOvercast.12 mph87%29.89 "Hg10 mi
1:35 am34 °FOvercast.10 mph81%29.89 "Hg10 mi
1:15 am34 °FOvercast.13 mph81%29.88 "Hg10 mi
12:55 am34 °FMostly cloudy.13 mph81%29.88 "Hg10 mi
12:35 am34 °FPassing clouds.12 mph81%29.87 "Hg10 mi
11:55 pm
Mon, Feb 24
34 °FPartly cloudy.12 mph81%29.87 "Hg10 mi
11:35 pm34 °FOvercast.12 mph81%29.87 "Hg10 mi
11:15 pm34 °FOvercast.12 mph81%29.88 "Hg10 mi
10:55 pm34 °FOvercast.13 mph81%29.88 "Hg10 mi
10:35 pm34 °FMostly cloudy.13 mph81%29.89 "Hg10 mi
Weather by CustomWeather, © 2020

See weather overview

Advertising